1333843228152,3.63686
1333843288152,3.60533
1333843348152,3.60685
1333843408152,3.62292
1333843468152,3.63178
1333843528152,3.59294
1333843588152,3.59670
1333843648152,3.59095
1333843708152,3.61544
1333843768152,3.61674
1333843828152,3.61148
1333843888152,3.62872
1333843948152,3.60945
1333844008152,3.64752
1333844068152,3.64373
1333844128152,3.65686
1333844188152,3.63055
1333844248152,3.59887
1333844308152,3.73791
1333844368152,3.61496
1333844428152,3.61735
1333844488152,3.61296
1333844548152,3.59399
1333844608152,3.59953
1333844668152,3.61000
1333844728152,3.61088
1333844788152,3.55706
1333844848152,3.59539
1333844908152,3.60853
1333844968152,3.59505
1333845028152,3.59490
1333845088152,3.58686
1333845148152,3.61006
1333845208152,3.64087
1333845268152,3.59332
1333845328152,3.59998
1333845388152,3.61785
1333845448152,3.57696
1333845508152,3.59314
1333845568152,3.61143
1333845628152,3.60372
1333845688152,3.59085
1333845748152,3.60563
1333845808152,3.58021
1333845868152,3.57728
1333845928152,3.57672
1333845988152,3.61327
1333846048152,3.65446
1333846108152,3.57967
1333846168152,3.57728
1333846228152,3.54656
1333846288152,3.59923
1333846348152,3.60400
1333846408152,3.56808
1333846468152,3.57583
1333846528152,3.57902
1333846588152,3.58287
1333846648152,3.59769
1333846708152,3.56870
1333846768152,3.58569
1333846828164,3.60737
1333846888164,3.60011
1333846948164,3.58311
1333847008164,3.60293
1333847068164,3.58185
1333847128164,3.58586
1333847188164,3.58363
1333847248164,3.56313
1333847308164,3.58575
1333847368164,3.58033
1333847428164,3.60806
1333847488164,3.57417
1333847548164,3.61317
1333847608164,3.59424
1333847668164,3.57671
1333847728164,3.56214
1333847788164,3.54495
1333847848164,3.58109
1333847908164,3.59698
1333847968164,3.55735
1333848028164,3.55868
1333848088164,3.57785
1333848148164,3.55190
1333848208164,3.57452
1333848268164,3.57150
1333848328164,3.53748
1333848388164,3.56877
1333848448164,3.56840
1333848508164,3.57883
1333848568164,3.59466
1333848628164,3.58454
1333848688164,3.55063
1333848748164,3.55076
1333848808164,3.53964
1333848868164,3.56908
1333848928164,3.59087
1333848988164,3.55312
1333849048164,3.55212
1333849108164,3.58278
1333849168164,3.56888
1333849228164,3.57152
1333849288164,3.59391
1333849348164,3.55250
1333849408164,3.56904
1333849468164,3.57362
1333849528164,3.56828
1333849588164,3.54117
1333849648164,3.57087
1333849708164,3.57148
1333849768164,3.56117
1333849828164,3.57798
1333849888164,3.59036
1333849948164,3.59824
1333850008164,3.61828
1333850068164,3.59208
1333850128164,3.63569
1333850188164,3.59889
1333850248164,3.56654
1333850308164,3.55660
1333850368164,3.60565
1333850428175,3.53981
1333850488175,3.55195
1333850548175,3.57023
1333850608175,3.54617
1333850668175,3.56515
1333850728175,3.56084
1333850788175,3.56956
1333850848175,3.57403
1333850908175,3.56707
1333850968175,3.53315
1333851028175,3.55925
1333851088175,3.56460
1333851148175,3.55043
1333851208175,3.57208
1333851268175,3.56108
1333851328175,3.56007
1333851388175,3.55589
1333851448175,3.59037
1333851508175,3.56959
1333851568175,3.59133
1333851628175,3.57643
1333851688175,3.58496
1333851748175,3.56663
1333851808175,3.53622
1333851868175,3.55096
1333851928175,3.57487
1333851988175,3.58968
1333852048175,3.55751
1333852108175,3.59016
1333852168175,3.59040
1333852228175,3.59268
1333852288175,3.59877
1333852348175,3.56493
1333852408175,3.57166
1333852468175,3.56157
1333852528175,3.58706
1333852588175,3.56758
1333852648175,3.56493
1333852708175,3.62462
1333852768175,3.54720
1333852828175,3.57994
1333852888175,3.57780
1333852948175,3.55579
1333853008175,3.53832
1333853068175,3.58418
1333853128175,3.51386
1333853188175,3.58692
1333853248175,3.58120
1333853308175,3.53878
1333853368175,3.56312
1333853428175,3.58490
1333853488175,3.57311
1333853548175,3.63009
1333853608175,3.62934
1333853668175,3.59772
1333853728175,3.62472
1333853788175,3.64075
1333853848175,3.60367
1333853908175,3.62618
1333853968175,3.59440
1333854028187,3.62922
1333854088187,3.64840
1333854148187,3.58908
1333854208187,3.59737
1333854268187,3.60273
1333854328187,3.61344
1333854388187,3.57434
1333854448187,3.60508
1333854508187,3.61180
1333854568187,3.61050
1333854628187,3.58549
1333854688187,3.61080
1333854748187,3.60703
1333854808187,3.57422
1333854868187,3.62871
1333854928187,3.60551
1333854988187,3.58195
1333855048187,3.56902
1333855108187,3.58157
1333855168187,3.59583
1333855228187,3.56496
1333855288187,3.58451
1333855348187,3.61262
1333855408187,3.61173
1333855468187,3.60424
1333855528187,3.58105
1333855588187,3.63599
1333855648187,3.57283
1333855708187,3.57586
1333855768187,3.56318
1333855828187,3.59239
1333855888187,3.60269
1333855948187,3.64002
1333856008187,3.61080
1333856068187,3.59906
1333856128187,3.62717
1333856188187,3.60881
1333856248187,3.64432
1333856308187,3.61411
1333856368187,3.59218
1333856428187,3.59425
1333856488187,3.59619
1333856548187,3.57918
1333856608187,3.58341
1333856668187,3.58135
1333856728187,3.60216
1333856788187,3.58419
1333856848187,3.58529
1333856908187,3.60787
1333856968187,3.57025
1333857028187,3.59750
1333857088187,3.61234
1333857148187,3.60673
1333857208187,3.60781
1333857268187,3.60385
1333857328187,3.57061
1333857388187,3.63326
1333857448187,3.59439
1333857508187,3.59805
1333857568187,3.59356
1333857628199,3.58403
1333857688199,3.59566
1333857748199,3.60372
1333857808199,3.65348
1333857868199,3.59917
1333857928199,3.59027
1333857988199,3.59510
1333858048199,3.56787
1333858108199,3.56721
1333858168199,3.57916
1333858228199,3.61727
1333858288199,3.59423
1333858348199,3.61118
1333858408199,3.59416
1333858468199,3.59991
1333858528199,3.57900
1333858588199,3.61127
1333858648199,3.63157
1333858708199,3.61274
1333858768199,3.61026
1333858828199,3.59972
1333858888199,3.61756
1333858948199,3.59502
1333859008199,3.59514
1333859068199,3.60621
1333859128199,3.61908
1333859188199,3.59597
1333859248199,3.58550
1333859308199,3.60615
1333859368199,3.59287
1333859428199,3.59994
1333859488199,3.61578
1333859548199,3.63301
1333859608199,3.57640
1333859668199,3.61213
1333859728199,3.63293
1333859788199,3.61815
1333859848199,3.61948
1333859908199,3.57364
1333859968199,3.59534
1333860028199,3.61238
1333860088199,3.59880
1333860148199,3.59453
1333860208199,3.60656
1333860268199,3.62843
1333860328199,3.61311
1333860388199,3.61070
1333860448199,3.59626
1333860508199,3.60644
1333860568199,3.64027
1333860628199,3.57167
1333860688199,3.58657
1333860748199,3.60651
1333860808199,3.58824
1333860868199,3.59963
1333860928199,3.61263
1333860988199,3.61571
1333861048199,3.59183
1333861108199,3.59664
1333861168199,3.58526
1333861228210,3.59942
1333861288210,3.62679
1333861348210,3.58394
1333861408210,3.57810
1333861468210,3.57504
1333861528210,3.60459
1333861588210,3.57956
1333861648210,3.59863
1333861708210,3.57341
1333861768210,3.55424
1333861828210,3.62224
1333861888210,3.60111
1333861948210,3.57174
1333862008210,3.59251
1333862068210,3.59715
1333862128210,3.60455
1333862188210,3.57142
1333862248210,3.57491
1333862308210,3.58260
1333862368210,3.56652
1333862428210,3.55039
1333862488210,3.54583
1333862548210,3.56656
1333862608210,3.56647
1333862668210,3.58363
1333862728210,3.58802
1333862788210,3.62727
1333862848210,3.60206
1333862908210,3.61838
1333862968210,3.59119
1333863028210,3.62486
1333863088210,3.61393
1333863148210,3.59873
1333863208210,3.61904
1333863268210,3.56385
1333863328210,3.59774
1333863388210,3.59669
1333863448210,3.58645
1333863508210,3.59394
1333863568210,3.60562
1333863628210,3.61947
1333863688210,3.61476
1333863748210,3.61107
1333863808210,3.63697
1333863868210,3.64468
1333863928210,3.62353
1333863988210,3.64777
1333864048210,3.60656
1333864108210,3.59367
1333864168210,3.64452
1333864228210,3.61121
1333864288210,3.58314
1333864348210,3.62217
1333864408210,3.58731
1333864468210,3.60952
1333864528210,3.57869
1333864588210,3.60289
1333864648210,3.60586
1333864708210,3.61550
1333864768210,3.61666
1333864828221,3.57519
1333864888221,3.61956
1333864948221,3.60923
1333865008221,3.61198
1333865068221,3.59828
1333865128221,3.59719
1333865188221,3.57835
1333865248221,3.61436
1333865308221,3.57482
1333865368221,3.57834
1333865428221,3.59367
1333865488221,3.55524
1333865548221,3.59301
1333865608221,3.58406
1333865668221,3.56131
1333865728221,3.57997
1333865788221,3.53825
1333865848221,3.62543
1333865908221,3.57037
1333865968221,3.55846
1333866028221,3.57395
1333866088221,3.55560
1333866148221,3.55701
1333866208221,3.54785
1333866268221,3.55895
1333866328221,3.55506
1333866388221,3.59857
1333866448221,3.59441
1333866508221,3.56498
1333866568221,3.56759
1333866628221,3.58923
1333866688221,3.56017
1333866748221,3.58832
1333866808221,3.59827
1333866868221,3.58071
1333866928221,3.62813
1333866988221,3.58593
1333867048221,3.58613
1333867108221,3.56945
1333867168221,3.58795
1333867228221,3.60076
1333867288221,3.56112
1333867348221,3.53197
1333867408221,3.59604
1333867468221,3.56857
1333867528221,3.56380
1333867588221,3.53133
1333867648221,3.55874
1333867708221,3.55327
1333867768221,3.55574
1333867828221,3.54789
1333867888221,3.54466
1333867948221,3.54383
1333868008221,3.54462
1333868068221,3.54026
1333868128221,3.56253
1333868188221,3.55565
1333868248221,3.54955
1333868308221,3.55229
1333868368221,3.55556
1333868428232,3.56075
1333868488232,3.56844
1333868548232,3.56095
1333868608232,3.58319
1333868668232,3.56482
1333868728232,3.54305
1333868788232,3.51501
1333868848232,3.53100
1333868908232,3.54468
1333868968232,3.56821
1333869028232,3.57145
1333869088232,3.57465
1333869148232,3.55509
1333869208232,3.57012
1333869268232,3.56310
1333869328232,3.56653
1333869388232,3.57880
1333869448232,3.59011
1333869508232,3.59852
1333869568232,3.56422
1333869628232,3.59268
1333869688232,3.57808
1333869748232,3.55583
1333869808232,3.58675
1333869868232,3.57319
1333869928232,3.56940
1333869988232,3.58437
1333870048232,3.54248
1333870108232,3.57749
1333870168232,3.57763
1333870228232,3.59511
1333870288232,3.60374
1333870348232,3.56451
1333870408232,3.55585
1333870468232,3.57761
1333870528232,3.56055
1333870588232,3.54528
1333870648232,3.52989
1333870708232,3.56478
1333870768232,3.54243
1333870828232,3.54292
1333870888232,3.55771
1333870948232,3.53795
1333871008232,3.55597
1333871068232,3.58070
1333871128232,3.56757
1333871188232,3.56695
1333871248232,3.55581
1333871308232,3.58077
1333871368232,3.58855
1333871428232,3.55628
1333871488232,3.53354
1333871548232,3.54770
1333871608232,3.56805
1333871668232,3.55019
1333871728232,3.54556
1333871788232,3.54660
1333871848232,3.58266
1333871908232,3.56569
1333871968232,3.58686
1333872028244,3.56083
1333872088244,3.55684
1333872148244,3.57470
1333872208244,3.58147
1333872268244,3.54052
1333872328244,3.54444
1333872388244,3.52410
1333872448244,3.58661
1333872508244,3.56987
1333872568244,3.61610
1333872628244,3.58791
1333872688244,3.59042
1333872748244,3.60582
1333872808244,3.60032
1333872868244,3.58234
1333872928244,3.56862
1333872988244,3.58788
1333873048244,3.56987
1333873108244,3.56871
1333873168244,3.54678
1333873228244,3.53326
1333873288244,3.55460
1333873348244,3.54481
1333873408244,3.61087
1333873468244,3.55927
1333873528244,3.61328
1333873588244,3.58291
1333873648244,3.58195
1333873708244,3.58919
1333873768244,3.60818
1333873828244,3.60152
1333873888244,3.57534
1333873948244,3.60521
1333874008244,3.56913
1333874068244,3.59213
1333874128244,3.58835
1333874188244,3.55379
1333874248244,3.56544
1333874308244,3.57086
1333874368244,3.56738
1333874428244,3.58180
1333874488244,3.56515
1333874548244,3.58973
1333874608244,3.56216
1333874668244,3.55528
1333874728244,3.57828
1333874788244,3.55498
1333874848244,3.59561
1333874908244,3.57508
1333874968244,3.54677
1333875028244,3.56034
1333875088244,3.52972
1333875148244,3.57949
1333875208244,3.58611
1333875268244,3.57912
1333875328244,3.58404
1333875388244,3.56446
1333875448244,3.55764
1333875508244,3.57507
1333875568244,3.55798
1333875628255,3.57050
1333875688255,3.54435
1333875748255,3.55082
1333875808255,3.57217
1333875868255,3.58222
1333875928255,3.56328
1333875988255,3.54797
1333876048255,3.56528
1333876108255,3.55129
1333876168255,3.53886
1333876228255,3.57178
1333876288255,3.58850
1333876348255,3.59868
1333876408255,3.55596
1333876468255,3.54163
1333876528255,3.56219
1333876588255,3.58647
1333876648255,3.55486
1333876708255,3.57247
1333876768255,3.55078
1333876828255,3.53992
1333876888255,3.56668
1333876948255,3.57056
1333877008255,3.58396
1333877068255,3.54395
1333877128255,3.54948
1333877188255,3.57335
1333877248255,3.58328
1333877308255,3.56021
1333877368255,3.55165
1333877428255,3.52391
1333877488255,3.55954
1333877548255,3.54071
1333877608255,3.53974
1333877668255,3.54286
1333877728255,3.54828
1333877788255,3.53098
1333877848255,3.53189
1333877908255,3.56293
1333877968255,3.58830
1333878028255,3.54760
1333878088255,3.53357
1333878148255,3.55920
1333878208255,3.54396
1333878268255,3.55645
1333878328255,3.56699
1333878388255,3.56007
1333878448255,3.53056
1333878508255,3.53979
1333878568255,3.54730
1333878628255,3.52115
1333878688255,3.52171
1333878748255,3.54827
1333878808255,3.53473
1333878868255,3.55432
1333878928255,3.54160
1333878988255,3.55236
1333879048255,3.54690
1333879108255,3.52058
1333879168255,3.56425
1333879228266,3.53936
1333879288266,3.57747
1333879348266,3.55011
1333879408266,3.59597
1333879468266,3.56999
1333879528266,3.55247
1333879588266,3.55949
1333879648266,3.55605
1333879708266,3.53208
1333879768266,3.52219
1333879828266,3.52672
1333879888266,3.56107
1333879948266,3.53287
1333880008266,3.56272
1333880068266,3.55348
1333880128266,3.54747
1333880188266,3.54451
1333880248266,3.53553
1333880308266,3.52860
1333880368266,3.56272
1333880428266,3.55359
1333880488266,3.53639
1333880548266,3.50726
1333880608266,3.54558
1333880668266,3.56506
1333880728266,3.52889
1333880788266,3.54174
1333880848266,3.57232
1333880908266,3.57803
1333880968266,3.55907
1333881028266,3.54717
1333881088266,3.53330
1333881148266,3.54696
1333881208266,3.54747
1333881268266,3.55004
1333881328266,3.55531
1333881388266,3.55109
1333881448266,3.56034
1333881508266,3.55299
1333881568266,3.54125
1333881628266,3.55985
1333881688266,3.55611
1333881748266,3.54807
1333881808266,3.58116
1333881868266,3.53758
1333881928266,3.56419
1333881988266,3.55376
1333882048266,3.56069
1333882108266,3.56435
1333882168266,3.53919
1333882228266,3.53823
1333882288266,3.54387
1333882348266,3.53231
1333882408266,3.55166
1333882468266,3.55805
1333882528266,3.58550
1333882588266,3.55017
1333882648266,3.57210
1333882708266,3.53760
1333882768266,3.55303
1333882828277,3.54265
1333882888277,3.53317
1333882948277,3.53462
1333883008277,3.54686
1333883068277,3.54806
1333883128277,3.54666
1333883188277,3.54162
1333883248277,3.54344
1333883308277,3.55263
1333883368277,3.56919
1333883428277,3.57638
1333883488277,3.53845
1333883548277,3.53768
1333883608277,3.56076
1333883668277,3.53590
1333883728277,3.56279
1333883788277,3.59054
1333883848277,3.54332
1333883908277,3.59165
1333883968277,3.58184
1333884028277,3.56828
1333884088277,3.57907
1333884148277,3.61924
1333884208277,3.57485
1333884268277,3.56113
1333884328277,3.57524
1333884388277,3.60778
1333884448277,3.57419
1333884508277,3.62642
1333884568277,3.65817
1333884628277,3.60783
1333884688277,3.62674
1333884748277,3.61309
1333884808277,3.60567
1333884868277,3.60758
1333884928277,3.55776
1333884988277,3.59217
1333885048277,3.55033
1333885108277,3.60842
1333885168277,3.54229
1333885228277,3.59914
1333885288277,3.57307
1333885348277,3.61745
1333885408277,3.58771
1333885468277,3.58385
1333885528277,3.55084
1333885588277,3.58207
1333885648277,3.59677
1333885708277,3.57694
1333885768277,3.56162
1333885828277,3.55061
1333885888277,3.59162
1333885948277,3.55335
1333886008277,3.57052
1333886068277,3.57779
1333886128277,3.58473
1333886188277,3.58418
1333886248277,3.54414
1333886308277,3.61107
1333886368277,3.58069
1333886428288,3.55350
1333886488288,3.59980
1333886548288,3.59679
1333886608288,3.56364
1333886668288,3.59405
1333886728288,3.59794
1333886788288,3.59419
1333886848288,3.60275
1333886908288,3.64386
1333886968288,3.55698
1333887028288,3.57527
1333887088288,3.61809
1333887148288,3.57744
1333887208288,3.56871
1333887268288,3.56418
1333887328288,3.55967
1333887388288,3.56478
1333887448288,3.60861
1333887508288,3.59043
1333887568288,3.57146
1333887628288,3.58698
1333887688288,3.58502
1333887748288,3.56846
1333887808288,3.58232
1333887868288,3.58638
1333887928288,3.58974
1333887988288,3.60444
1333888048288,3.59165
1333888108288,3.58707
1333888168288,3.60774
1333888228288,3.55487
1333888288288,3.61089
1333888348288,3.62099
1333888408288,3.60870
1333888468288,3.55689
1333888528288,3.62747
1333888588288,3.61013
1333888648288,3.61652
1333888708288,3.59361
1333888768288,3.57508
1333888828288,3.60708
1333888888288,3.59678
1333888948288,3.64037
1333889008288,3.60121
1333889068288,3.60421
1333889128288,3.61501
1333889188288,3.62551
1333889248288,3.59699
1333889308288,3.60383
1333889368288,3.60151
1333889428288,3.60558
1333889488288,3.59986
1333889548288,3.60654
1333889608288,3.59551
1333889668288,3.61489
1333889728288,3.59774
1333889788288,3.60546
1333889848288,3.62709
1333889908288,3.61246
1333889968288,3.60291
1333890028299,3.59940
1333890088299,3.59066
1333890148299,3.61582
1333890208299,3.58613
1333890268299,3.59096
1333890328299,3.58961
1333890388299,3.61334
1333890448299,3.58119
1333890508299,3.63094
1333890568299,3.61662
1333890628299,3.61816
1333890688299,3.62297
1333890748299,3.63964
1333890808299,3.63816
1333890868299,3.60363
1333890928299,3.65688
1333890988299,3.64309
1333891048299,3.62951
1333891108299,3.64523
1333891168299,3.65892
1333891228299,3.63111
1333891288299,3.64548
1333891348299,3.63960
1333891408299,3.64809
1333892548299,3.58496
1333892608299,3.90914
1333892668299,3.62285
1333892728299,3.66552
1333892788299,3.63701
1333892848299,3.61122
1333892908299,3.62639
1333892968299,3.65057
1333893028299,3.62678
1333893088299,3.65435
1333893148299,3.64289
1333893208299,3.62625
1333893268299,3.61618
1333893328299,3.64857
1333893388299,3.62469
1333893448299,3.65515
1333893508299,3.62999
1333893568299,3.61077
1333893628309,3.62811
1333893688309,3.63040
1333893748309,3.62696
1333893808309,3.63419
1333893868309,3.64198
1333893928309,3.67532
1333893988309,3.62659
1333894048309,3.64289
1333894108309,3.66052
1333894168309,3.63256
1333894228309,3.60150
1333894288309,3.63297
1333894348309,3.66313
1333894408309,3.62492
1333894468309,3.60906
1333894528309,3.62362
1333894588309,3.61844
1333894648309,3.59971
1333894708309,3.61059
1333894768309,3.63900
1333894828309,3.58774
1333894888309,3.58716
1333894948309,3.63858
1333895008309,3.64171
1333895068309,3.64023
1333895128309,3.61104
1333895188309,3.64308
1333895248309,3.60447
1333895308309,3.60727
1333895368309,3.63512
1333895428309,3.61982
1333895488309,3.61481
1333895548309,3.64129
1333895608309,3.60121
1333895668309,3.59177
1333895728309,3.57861
1333895788309,3.62400
1333895848309,3.62858
1333895908309,3.56821
1333895968309,3.57517
1333896028309,3.55651
1333896088309,3.59563
1333896148309,3.58095
1333896208309,3.60215
1333896268309,3.57346
1333896328309,3.57279
1333896388309,3.57176
1333896448309,3.55550
1333896508309,3.62549
1333896568309,3.59038
1333896628309,3.60092
1333896688309,3.58623
1333896748309,3.61187
1333896808309,3.56632
1333896868309,3.55743
1333896928309,3.60021
1333896988309,3.60781
1333897048309,3.61162
1333897108309,3.60537
1333897168309,3.64584
1333897228320,3.59869
1333897288320,3.58622
1333897348320,3.58998
1333897408320,3.57851
1333897468320,3.61024
1333897528320,3.58738
1333897588320,3.60854
1333897648320,3.62033
1333897708320,3.61470
1333897768320,3.60184
1333897828320,3.62535
1333897888320,3.56692
1333897948320,3.58691
1333898008320,3.61327
1333898068320,3.60669
1333898128320,3.59243
1333898188320,3.59801
1333898248320,3.59480
1333898308320,3.63762
1333898368320,3.60809
1333898428320,3.62180
1333898488320,3.63225
1333898548320,3.61969
1333898608320,3.63730
1333898668320,3.59899
1333898728320,3.63565
1333898788320,3.62893
1333898848320,3.62991
1333898908320,3.62344
1333898968320,3.60553
1333899028320,3.58947
1333899088320,3.63207
1333899148320,3.61762
1333899208320,3.57410
1333899268320,3.63167
1333899328320,3.64396
1333899388320,3.62569
1333899448320,3.60468
1333899508320,3.64419
1333899568320,3.64347
1333899628320,3.59751
1333899688320,3.65475
1333899748320,3.63588
1333899808320,3.64762
1333899868320,3.63361
1333899928320,3.69523
1333899988320,3.66754
1333900048320,3.64381
1333900108320,3.66717
1333900168320,3.64428
1333900228320,3.65634
1333900288320,3.66806
1333900348320,3.70011
1333900408320,3.65671
1333900468320,3.68008
1333900528320,3.65310
1333900588320,3.64135
1333900648320,3.68887
1333900708320,3.67174
1333900768320,3.67780
1333900828331,3.65100
1333900888331,3.68177
1333900948331,3.67128
1333901008331,3.66994
1333901068331,3.64896
1333901128331,3.66104
1333901188331,3.67471
1333901248331,3.65535
1333901308331,3.67043
1333901368331,3.64225
1333901428331,3.61971
1333901488331,3.62476
1333901548331,3.65982
1333901608331,3.63729
1333901668331,3.66222
1333901728331,3.63879
1333901788331,3.67669
1333901848331,3.65018
1333901908331,3.63354
1333901968331,3.67717
1333902028331,3.66140
1333902088331,3.63352
1333902148331,3.63157
1333902208331,3.64729
1333902268331,3.64765
1333902328331,3.65293
1333902388331,3.66737
1333902448331,3.62195
1333902508331,3.61889
1333902568331,3.63624
1333902628331,3.62982
1333902688331,3.60695
1333902748331,3.61966
1333902808331,3.64164
1333902868331,3.62630
1333902928331,3.68608
1333902988331,3.63167
1333903048331,3.64877
1333903108331,3.63793
1333903168331,3.60594
1333903228331,3.59793
1333903288331,3.59868
1333903348331,3.65579
1333903408331,3.63815
1333903468331,3.63848
1333903528331,3.63365
1333903588331,3.66241
1333903648331,3.62307
1333903708331,3.61574
1333903768331,3.63189
1333903828331,3.60556
1333903888331,3.63262
1333903948331,3.64188
1333904008331,3.61615
1333904068331,3.63243
1333904128331,3.58713
1333904188331,3.64557
1333904248331,3.63008
1333904308331,3.63044
1333904368331,3.61232
1333904428342,3.63734
1333904488342,3.65416
1333904548342,3.63959
1333904608342,3.67103
1333904668342,3.63937
1333904728342,3.65268
1333904788342,3.66804
1333904848342,3.62692
1333904908342,3.63572
1333904968342,3.64249
1333905028342,3.64503
1333905088342,3.62822
1333905148342,3.64489
1333905208342,3.62520
1333905268342,3.63739
1333905328342,3.64199
1333905388342,3.60167
1333905448342,3.63423
1333905508342,3.62840
1333905568342,3.64996
1333905628342,3.62404
1333905688342,3.63885
1333905748342,3.65939
1333905808342,3.62755
1333905868342,3.64629
1333905928342,3.64150
1333905988342,3.66750
1333906048342,3.67180
1333906108342,3.66438
1333906168342,3.68308
1333906228342,3.65329
1333906288342,3.63985
1333906348342,3.66831
1333906408342,3.65274
1333906468342,3.63706
1333906528342,3.64816
1333906588342,3.67349
1333906648342,3.62658
1333906708342,3.64378
1333906768342,3.65069
1333906828342,3.63677
1333906888342,3.63952
1333906948342,3.66312
1333907008342,3.60967
1333907068342,3.66467
1333907128342,3.64136
1333907188342,3.60600
1333907248342,3.64794
1333907308342,3.62669
1333907368342,3.64319
1333907428342,3.62507
1333907488342,3.63034
1333907548342,3.61800
1333907608342,3.65618
1333907668342,3.67580
1333907728342,3.67873
1333907788342,3.62709
1333907848342,3.65201
1333907908342,3.69548
1333907968342,3.65329
1333908028352,3.66474
1333908088352,3.63133
1333908148352,3.63853
1333908208352,3.62685
1333908268352,3.61335
1333908328352,3.66989
1333908388352,3.65945
1333908448352,3.67356
1333908508352,3.65678
1333908568352,3.63321
1333908628352,3.65222
1333908688352,3.64236
1333908748352,3.63318
1333908808352,3.63817
1333908868352,3.61449
1333908928352,3.63601
1333908988352,3.67491
1333909048352,3.62178
1333909108352,3.66650
1333909168352,3.63720
1333909228352,3.62655
1333909288352,3.67263
1333909348352,3.64110
1333909408352,3.64846
1333909468352,3.63399
1333909528352,3.61871
1333909588352,3.66640
1333909648352,3.63755